User: anonymous   Login
Location: Unspecified
(0.0000°N, 0.0000°E)
Time: 00:14:05
(UTC+00:00)
Language:

STARLINK-36718 - Orbit

View from above orbital plane
View from above orbital plane
View from above satellite
View from above satellite

Ground track
Ground track

The orbit is defined by the following mean orbital elements,

1 67715U          26145.24303520 +.00000000 +00000-0 +11361-2 0 00000
2 67715  97.2832 256.8445 0001654  80.8106 279.3323 15.33451980    00
Epoch (UTC): 25 May 2026 05:49:58
Eccentricity: 0.0001654
inclination: 97.2832°
perigee height: 464 km
apogee height: 467 km
right ascension of ascending node: 256.8445°
argument of perigee: 80.8106°
revolutions per day: 15.33451980
mean anomaly at epoch: 279.3323°

The dashed part of the orbit path shows where the satellite is in the earth's shadow,  

DLR